Location: Pinawa
(50.1500°N, 95.8830°W)
Time: 05:52:46
(UTC-05:00)

Daily predictions for brighter satellites

Satellite Brightness Start Highest point End
(mag) Time Altitude Azimuth Time Altitude Azimuth Time Altitude Azimuth
ATLAS CENTAUR R/B 2.0 00:05:54 33° ESE 00:05:54 33° ESE 00:09:15 10° ENE
Cosmos 2082 4.3 00:01:30 10° NNW 00:07:06 52° NE 00:10:40 22° ESE
Meteor 1-20 Rocket 4.3 00:05:11 29° S 00:08:12 66° E 00:13:51 10° NNE
Meteor 1-25 Rocket 4.3 00:05:45 27° S 00:08:58 74° E 00:14:49 10° NNE
ISS -4.0 00:08:14 10° WSW 00:11:30 89° SSE 00:14:47 10° ENE
DELTA 2 DEB (DPAF) 4.4 00:11:20 33° S 00:13:14 63° WSW 00:17:41 10° NNW
ARGOS Delta rocket 3.6 00:10:36 10° N 00:15:13 86° WNW 00:17:17 32° SSW
USA 129 4.1 00:14:55 10° NNE 00:15:52 20° NE 00:15:52 20° NE
Meteor 1-14 Rocket 4.4 00:13:52 22° SSW 00:17:47 79° WNW 00:23:37 10° N
Cosmos 1656 Rocket 3.8 00:13:10 12° SW 00:18:19 71° WNW 00:23:53 10° NNE
Cosmos 1908 Rocket 4.4 00:18:36 20° SW 00:21:24 48° WNW 00:25:44 10° N
Cosmos 1867 4.5 00:17:28 10° NW 00:22:25 36° WSW 00:24:30 26° SSW
Okean 2 Rocket 3.0 00:22:31 40° S 00:24:05 81° E 00:28:34 10° NNE
Mayak 0.3 00:22:56 10° NE 00:26:13 22° E 00:26:48 21° ESE
Terra 3.7 00:24:15 13° SW 00:27:12 22° W 00:30:53 10° NW
CZ-2C R/B 2.9 00:25:43 35° SSE 00:27:56 85° ENE 00:32:53 10° NNW
Cosmos 1536 4.2 00:30:56 24° ESE 00:31:33 25° E 00:34:54 10° NNE
CENTAUR R/B 3.5 00:26:08 10° WSW 00:32:22 53° NW 00:39:32 10° NE
deb Chang Zheng 4 4.4 00:28:11 10° N 00:32:29 48° WNW 00:35:13 21° SW
Cosmos 1812 4.0 00:29:16 10° NNW 00:32:46 33° W 00:34:04 26° SW
Cosmos 2227 Rocket 2.2 00:27:46 10° NNW 00:33:28 86° ENE 00:36:07 33° SSE
CZ-4C R/B 4.3 00:32:14 30° SW 00:33:46 42° W 00:37:45 10° NNW
Gbstr 26 Del rocket 2.7 00:30:53 10° WNW 00:35:08 66° SSW 00:35:53 52° SSE
Cosmos 407 Rocket 4.3 00:30:49 10° NNW 00:35:56 45° ENE 00:38:54 23° ESE
Cosmos 2219 4.1 00:31:03 10° NW 00:36:18 37° WSW 00:38:45 26° SSW
Okean 1 3.7 00:34:36 10° NNW 00:38:32 53° W 00:39:36 40° SW
Meteor 1-11 Rocket 4.3 00:36:32 31° SSE 00:38:58 49° E 00:44:41 10° NNE
Cosmos 2315 Rocket 4.5 00:33:03 10° N 00:39:06 51° ENE 00:42:16 27° SE
CZ-2C R/B 2.6 00:34:56 10° NNE 00:40:05 65° ESE 00:42:04 37° S
Cosmos 2266 Rocket 4.2 00:37:32 32° SSE 00:40:19 57° E 00:46:18 10° NNE
Okean 1 Rocket 4.3 00:41:29 25° ESE 00:42:22 27° E 00:46:00 10° NNE
Cosmos 1655 Rocket 4.3 00:45:17 24° SSW 00:49:05 64° WNW 00:55:20 10° N
Cosmos 2292 4.1 00:46:01 10° N 00:49:11 74° E 00:49:11 74° E
Lacrosse 5 rocket 2.6 00:48:11 10° W 00:51:39 38° NNW 00:55:16 10° NE
Cosmos 405 Rocket 4.3 00:49:08 10° NW 00:52:10 24° W 00:53:04 21° WSW
Meteor 2-4 Rocket 3.6 00:47:45 10° N 00:53:09 74° ENE 00:55:18 37° SSE
Cosmos 1656 4.4 00:53:47 31° SE 00:55:06 36° ESE 01:00:06 10° NE
Cosmos 2369 4.1 00:55:17 36° SSE 00:57:05 48° ESE 01:02:34 10° NE
CZ-4C R/B 3.3 00:51:49 10° NW 00:58:31 59° NE 01:06:07 10° ESE
CZ-4C R/B 3.8 00:58:53 36° E 00:59:17 38° ENE 01:02:26 10° N
Cosmos 1943 Rocket 4.4 00:55:41 10° W 01:00:06 23° NW 01:04:30 10° NNE
Cosmos 1633 3.1 00:59:40 42° WSW 01:00:24 50° WNW 01:03:55 10° N
APEX 4.0 00:59:11 10° NW 01:03:40 41° WSW 01:04:13 39° SW
Cosmos 2056 Rocket 4.0 01:02:35 35° SE 01:03:48 41° ESE 01:08:37 10° NE
Cosmos 1980 Rocket 3.8 01:03:42 18° ESE 01:05:01 19° E 01:08:54 10° NE
CZ-4B R/B 2.9 01:04:25 26° E 01:05:18 30° ENE 01:08:24 10° N
ALOS 2 2.9 01:05:43 42° SSW 01:06:51 56° W 01:11:11 10° NNW
Cosmos 1689 Rocket 3.7 01:11:06 27° E 01:11:36 29° ENE 01:14:26 10° N
Cosmos 1025 Rocket 3.4 01:08:26 10° N 01:12:45 55° ENE 01:13:59 40° SE
Cosmos 2151 Rocket 4.0 01:18:03 37° SW 01:19:32 57° WNW 01:23:56 10° N
Nadezhda 2 Rocket 4.4 01:24:45 36° S 01:27:23 76° E 01:33:30 10° NNE
H-2A R/B 4.1 01:24:48 10° NE 01:27:51 20° E 01:28:35 19° ESE
Cosmos 2297 Rocket 2.6 01:22:51 10° NW 01:28:18 48° WSW 01:30:03 36° SSW
SAR-Lupe-2 3.9 01:31:31 49° ESE 01:32:07 57° ENE 01:35:39 10° N
Cosmos 1697 Rocket 3.1 01:30:56 37° SSE 01:32:40 49° ESE 01:38:05 10° NE
GP-B 3.2 01:30:22 10° N 01:34:48 65° W 01:36:00 44° SW
Cosmos 1892 Rocket 4.2 01:33:52 10° N 01:38:14 48° ENE 01:39:53 32° SE
Spot 2 3.8 01:34:57 10° NNE 01:39:04 88° WNW 01:39:55 55° SSW
Cosmos 1300 Rocket 3.8 01:39:21 42° SW 01:40:35 60° WNW 01:44:55 10° N
Cosmos 921 Rocket 3.1 01:41:32 50° SSE 01:42:20 62° ESE 01:46:33 10° NNE
ATLAS CENTAUR R/B 2.6 01:42:08 16° W 01:44:44 35° NW 01:48:15 10° NNE
SL-16 R/B 4.2 01:44:16 12° ESE 01:46:29 15° E 01:49:34 10° ENE
ISS -3.5 01:44:51 10° W 01:48:06 66° N 01:51:21 10° E
Okean 2 3.3 01:46:05 10° NNW 01:50:15 75° W 01:51:03 55° SSW
Cosmos 614 Rocket 4.1 01:45:13 10° NNW 01:50:18 69° ENE 01:52:46 30° SE
Cosmos 1371 Rocket 4.2 01:48:18 33° SW 01:50:38 68° WNW 01:55:51 10° NNE
Cosmos 2322 Rocket 4.0 01:53:12 14° SE 01:55:30 18° E 01:59:13 10° ENE
Cosmos 2278 3.9 01:54:09 29° SW 01:57:09 68° WNW 02:02:51 10° NNE
Landsat 5 3.2 01:56:56 59° SSW 01:57:29 71° WSW 02:01:21 10° NNW
Mayak -0.4 01:58:04 10° N 02:02:05 43° WNW 02:03:28 32° WSW
SL-16 R/B 4.4 01:58:36 10° ESE 02:03:41 27° NE 02:08:46 10° N
Genesis I 3.1 01:59:57 10° NW 02:03:58 74° SW 02:04:39 57° SSE
Cosmos 676 Rocket 4.2 01:59:41 10° NNW 02:04:49 57° WSW 02:06:30 39° SSW
USA 234 4.1 02:00:46 10° ENE 02:06:27 31° SE 02:08:23 26° SSE
Cosmos 1536 4.0 02:06:41 27° WSW 02:07:52 33° WNW 02:11:36 10° N
Cosmos 2227 4.1 02:03:21 10° NNW 02:09:00 89° WSW 02:12:02 29° SSE
Cosmos 839 Rocket 4.4 02:08:23 32° S 02:10:51 47° ESE 02:16:46 10° NE
GRACE-1 4.3 02:14:16 58° NE 02:14:16 58° NE 02:16:39 10° N
GRACE-2 4.3 02:14:33 58° NE 02:14:33 58° NE 02:16:55 10° N
Cosmos 1544 Rocket 3.8 02:13:08 40° SSE 02:14:29 60° E 02:18:54 10° NNE
Resurs 1-4 Rocket 4.5 02:13:54 10° ENE 02:16:11 13° E 02:18:28 10° ESE
Cosmos 2227 Rocket 3.9 02:13:09 10° WNW 02:16:46 18° W 02:17:54 17° WSW
Cosmos 1461 2.9 02:12:42 10° NW 02:17:01 86° NE 02:19:15 29° SE
Cosmos 407 Rocket 4.5 02:13:06 10° NW 02:17:47 32° WSW 02:19:06 29° SW
Okean 1-7 Rocket 4.4 02:13:53 10° NNW 02:17:53 35° W 02:18:49 31° WSW
Cosmos 1066 Rocket 4.0 02:12:29 10° NNW 02:17:58 88° W 02:20:22 34° S
Cosmos 1741 Rocket 4.0 02:14:16 10° NNW 02:19:31 80° ENE 02:22:27 27° SSE
CZ-2C R/B 4.4 02:16:00 10° N 02:19:57 23° WNW 02:23:35 12° WSW
Okean 1 Rocket 4.1 02:18:40 27° WSW 02:20:09 35° WNW 02:24:10 10° N
Cosmos 1745 Rocket 4.0 02:17:35 32° S 02:20:37 80° E 02:26:48 10° NNE
Cosmos 1515 4.3 02:19:42 10° NNW 02:23:16 39° W 02:23:42 38° WSW
Cosmos 1140 Rocket 3.6 02:18:51 10° NNW 02:23:55 57° WSW 02:25:41 37° SSW
BREEZE-M DEB (TANK) 3.2 02:15:43 10° WSW 02:25:40 56° SSE 02:28:54 10° E
ADEOS Rocket 4.3 02:22:02 10° NNE 02:27:41 32° E 02:31:34 16° SE
USA 229 DEB 3.7 02:25:49 26° SW 02:30:00 88° NW 02:37:04 10° NE
USA 229 3.7 02:25:56 26° SW 02:30:06 89° NW 02:37:09 10° NE
Cosmos 1455 Rocket 3.0 02:29:38 42° S 02:31:04 76° E 02:35:27 10° NNE
Lacrosse 5 rocket 3.2 02:28:12 10° WNW 02:31:33 29° N 02:35:04 10° ENE
Cosmos 1842 4.4 02:29:39 10° N 02:33:19 38° ENE 02:35:25 21° SE
NOSS 3-1 (A) 4.1 02:33:28 28° SSE 02:36:01 42° ESE 02:42:08 10° NE
CZ-2D R/B 4.2 02:32:29 10° NE 02:36:22 19° E 02:40:14 10° SE
Cosmos 2263 Rocket 2.6 02:30:45 10° NNW 02:36:24 62° ENE 02:42:03 10° SE
CZ-4B R/B 3.0 02:37:59 23° W 02:37:59 23° W 02:40:51 10° NW
Cosmos 1656 4.4 02:35:12 20° WSW 02:38:39 45° NW 02:43:59 10° NNE
Cosmos 405 3.0 02:39:42 52° SSE 02:40:24 71° E 02:43:56 10° NNE
SL-08 R/B 4.0 02:37:31 17° SE 02:40:50 50° ENE 02:45:19 10° N
Cosmos 1689 Rocket 4.2 02:43:53 19° W 02:43:53 19° W 02:45:59 10° NW
Cosmos 1743 2.8 02:43:11 43° S 02:44:20 73° E 02:48:13 10° NNE
Cosmos 44 3.9 02:41:13 10° NNW 02:45:28 50° NE 02:49:47 10° ESE
Cosmos 1238 Rocket 4.4 02:41:41 10° NNW 02:46:16 37° W 02:48:26 27° SW
PSLV R/B 3.8 02:42:15 10° NNE 02:47:02 79° WNW 02:49:05 34° SSW
CZ-4C R/B 3.1 02:40:28 10° NW 02:47:12 48° WSW 02:51:52 23° S
Cosmos 2360 Rocket 4.1 02:44:09 10° SE 02:47:50 19° E 02:51:40 10° ENE
Cosmos 1980 Rocket 2.2 02:45:28 30° SW 02:48:21 80° WNW 02:54:01 10° NNE
PSLV R/B 3.9 02:51:14 33° SSE 02:53:07 87° WSW 02:57:23 10° NNW
BREEZE-M (TANK) 4.4 02:50:10 10° W 02:52:15 17° W 02:52:15 17° W
Cosmos 1500 4.2 02:54:18 29° WSW 02:55:23 35° WNW 02:58:57 10° N
ATLAS 3B R/B 3.9 02:53:01 10° NW 02:59:35 43° NNE 03:05:50 10° ESE
Cosmos 1602 Rocket 3.5 02:55:59 10° NNW 03:00:27 76° W 03:02:27 32° S
Cosmos 1975 3.6 02:59:20 31° WSW 03:00:43 42° WNW 03:04:37 10° N
H-2A R/B 3.1 02:59:44 10° N 03:03:39 44° WNW 03:05:11 29° WSW
Cosmos 1437 Rocket 3.0 03:02:41 32° S 03:04:28 68° E 03:08:35 10° NNE
BREEZE M DEB (TANK) 2.0 03:07:50 39° SE 03:07:50 39° SE 03:10:08 10° E
USA 81 4.4 03:04:58 10° NNW 03:10:05 51° W 03:12:40 27° SSW
Cosmos 1452 Rocket 4.2 03:09:08 22° WSW 03:12:14 45° WNW 03:17:21 10° NNE
Meteor 1-21 4.3 03:09:00 10° NNW 03:14:33 64° W 03:17:55 24° S
Cosmos 1697 Rocket 3.8 03:12:39 15° WSW 03:16:50 36° NW 03:22:01 10° NNE
NOSS 3-1 (C) 3.5 03:16:27 23° SW 03:20:21 86° NW 03:27:10 10° NE
Helios 1A Rocket 2.9 03:17:27 10° N 03:21:31 73° WNW 03:23:25 30° SSW
ISS -3.9 03:21:23 10° WNW 03:24:37 58° SSW 03:27:49 10° SE
ATLAS CENTAUR R/B 4.1 03:23:17 10° NW 03:24:44 12° NNW 03:26:11 10° N
UNK 3.9 03:22:03 13° SSE 03:26:10 75° ENE 03:30:48 10° N
Cosmos 44 Rocket 3.1 03:22:14 10° NW 03:26:58 75° SW 03:31:43 10° SSE
Cosmos 1607 4.4 03:20:56 10° NW 03:27:21 67° NE 03:33:48 10° SE
SL-16 R/B 2.2 03:26:08 24° SSW 03:29:42 83° ESE 03:35:25 10° NNE
Cosmos 1709 Rocket 4.0 03:27:27 23° SSW 03:31:24 66° WNW 03:37:31 10° N
Meteor 1-4 Rocket 3.6 03:30:12 18° SSE 03:32:26 39° E 03:35:48 10° NNE
IRS-1D 4.1 03:29:13 10° NNE 03:34:02 49° E 03:38:04 14° S
Meteor 2-9 Rocket 4.3 03:30:58 21° SSW 03:35:01 87° WNW 03:40:56 10° NNE
Cosmos 1110 Rocket 4.0 03:35:10 22° SSW 03:38:36 77° ESE 03:43:47 10° NNE
Cosmos 2322 Rocket 2.2 03:35:01 22° SSW 03:38:48 86° WNW 03:44:33 10° NNE
Cosmos 1606 Rocket 4.1 03:35:27 16° SSE 03:38:48 55° E 03:43:10 10° NNE
Cosmos 1666 3.7 03:42:14 22° WSW 03:44:00 34° WNW 03:47:35 10° N
SL-16 R/B 2.5 03:40:35 10° S 03:46:48 72° WSW 03:53:06 10° NNW
USA 234 3.3 03:43:28 10° ENE 03:50:04 84° SSE 03:55:43 15° SW
Cosmos 1340 Rocket 4.3 03:50:10 10° N 03:53:55 36° ENE 03:57:35 10° SE
Resurs 1-4 Rocket 2.2 03:51:36 10° NNE 03:56:55 79° ESE 04:01:28 14° S
Cosmos 1825 Rocket 3.7 03:52:56 10° NNW 03:57:16 55° W 04:00:35 16° S
IRS-1C 4.2 03:51:57 10° NNE 03:57:19 76° WNW 04:01:31 17° SSW
Cosmos 1758 Rocket 3.5 03:54:11 10° NNW 03:58:32 71° W 04:02:25 13° S
ARIANE 5 R/B 2.6 03:57:08 10° NNE 04:02:17 76° ESE 04:06:58 13° S
Cosmos 2184 Rocket 4.0 04:00:07 14° SSW 04:05:38 83° W 04:11:51 10° N
BREEZE-M DEB (TANK) 4.3 04:05:03 10° SSE 04:06:42 13° SE 04:08:48 10° ESE
BREEZE-M DEB (TANK) 3.1 04:03:27 10° W 04:06:44 81° S 04:17:27 10° ESE
Lacrosse 5 rocket 2.0 04:07:29 10° NW 04:11:19 56° NNE 04:15:23 10° ESE
Cosmos 1184 Rocket 2.9 04:10:02 10° N 04:13:24 78° ENE 04:16:42 10° SSE
UNKNOWN OBJECT B 3.4 04:09:44 10° NNE 04:13:28 51° E 04:17:14 10° S
NPP 4.3 04:08:23 10° N 04:13:29 44° WNW 04:17:47 14° SW
ADEOS Rocket 3.4 04:07:16 10° N 04:13:34 52° WNW 04:18:31 14° SW
Cosmos 1271 Rocket 3.8 04:11:59 10° S 04:15:49 45° E 04:19:39 10° NNE
CZ-2D R/B 2.2 04:11:32 10° NNE 04:17:03 76° WNW 04:22:07 12° SSW
Cosmos 2228 3.1 04:13:49 10° S 04:18:02 75° E 04:22:21 10° NNE
Cosmos 2263 Rocket 3.2 04:15:19 10° NW 04:19:56 26° WSW 04:24:05 12° SSW
Cosmos 1331 Rocket 4.2 04:16:13 15° SW 04:20:25 58° WNW 04:25:33 10° NNE
ATLAS 2AS CENTAUR R/B 3.6 04:14:19 11° SSW 04:21:44 55° ESE 04:29:38 10° NE
Cosmos 389 Rocket 4.0 04:22:43 10° SSE 04:25:57 34° E 04:29:15 10° NNE
Cosmos 44 4.0 04:22:46 10° WNW 04:26:27 27° WSW 04:30:12 10° S
NOSS 3-1 (A) 4.1 04:20:54 10° WSW 04:26:47 54° NW 04:33:35 10° NE
Nadezhda 3 Rocket 4.0 04:24:38 10° NNW 04:30:51 76° W 04:37:08 10° S
Cosmos 2360 Rocket 2.2 04:25:56 12° SSW 04:31:08 82° WNW 04:36:51 10° NNE
Cosmos 1980 Rocket 4.1 04:29:06 10° W 04:33:17 21° NW 04:37:28 10° N
NOSS 2-3 (E) 4.2 04:29:15 12° SSW 04:33:43 70° SE 04:39:29 10° NE
COSMOS 2428 3.3 04:28:20 10° S 04:33:54 54° ESE 04:39:30 10° NE
Cosmos 1953 Rocket 4.4 04:30:48 10° NNW 04:34:48 33° W 04:38:48 10° SSW
Cosmos 2219 Rocket 3.5 04:30:35 10° S 04:35:41 36° ESE 04:40:48 10° NE
Cosmos 2058 Rocket 3.2 04:33:29 10° SSW 04:37:58 64° WNW 04:42:29 10° N
Aureole 2 Rocket 4.4 04:35:07 10° SSE 04:38:49 32° ESE 04:42:27 10° NE
Cosmos 2237 Rocket 4.3 04:34:41 10° SSE 04:38:54 22° ESE 04:43:07 10° NE
ATLAS CENTAUR R/B 2.8 04:31:02 10° WNW 04:39:38 71° NNE 04:42:52 10° ESE
Cosmos 2074 Rocket 4.5 04:34:21 11° SSW 04:40:16 48° WNW 04:46:22 10° N
Cosmos 1844 Rocket 2.7 04:35:21 10° NNW 04:41:00 69° WSW 04:46:38 10° SSE
MOS 1 Rocket 3.4 04:38:05 10° N 04:42:40 60° WNW 04:47:00 10° SSW
Cosmos 972 Rocket 4.0 04:40:10 10° SSW 04:45:02 79° ESE 04:50:07 10° NNE
MOZ.5/SAFIR/RUBIN 5/SL-8 4.2 04:41:19 10° S 04:45:44 43° W 04:50:11 10° NNW
Cosmos 1354 Rocket 4.2 04:42:40 10° NNW 04:47:48 51° WSW 04:52:55 10° S
Meteor 2-5 Rocket 4.1 04:43:28 10° NNW 04:48:51 48° W 04:54:19 10° SSW
Okean O Rocket 3.5 04:44:57 10° NNE 04:48:52 30° E 04:52:48 10° SSE
Cosmos 1812 Rocket 4.2 04:46:06 10° S 04:50:23 58° E 04:54:40 10° NNE
ATLAS 3B R/B 2.6 04:43:56 10° NW 04:50:40 66° SW 04:57:07 10° SSE
Cosmos 2333 Rocket 3.4 04:47:48 10° S 04:53:03 39° ESE 04:58:17 10° NE
Cosmos 1544 3.8 04:49:27 10° S 04:53:05 54° E 04:56:44 10° NNE
Cosmos 2322 3.9 04:49:05 10° SW 04:54:43 68° WNW 05:00:24 10° NNE
SeaSat 1 2.5 04:50:34 10° SSE 04:55:31 85° WSW 05:00:30 10° NNW
Cosmos 1707 3.9 04:52:58 10° NNW 04:56:11 25° W 04:59:23 10° SW
SL-8 R/B 4.3 04:52:33 10° SW 04:57:08 44° SSE 05:01:44 10° E
Meteor 1-24 Rocket 3.7 04:51:55 10° NNW 04:57:13 63° W 05:02:40 10° S
Cosmos 2154 Rocket 4.2 04:53:39 10° SSW 04:59:53 62° WNW 05:06:07 10° N
ISS -2.0 04:58:48 10° WSW 05:00:35 14° SW 05:02:20 10° S
BREEZE-M DEB (TANK) 4.1 04:50:11 10° WSW 05:00:42 42° S 05:03:34 10° E
Cosmos 1766 3.3 04:59:42 10° SSW 05:03:37 81° W 05:07:36 10° N
ADEOS 4.3 05:00:25 10° N 05:05:15 40° WNW 05:10:05 10° SW
Cosmos 2278 Rocket 2.4 04:59:33 10° NNW 05:05:16 81° ENE 05:10:57 10° SSE
NOSS 2-3 (C) 4.2 05:02:01 10° SW 05:06:57 76° NW 05:12:55 10° NE
